Regional Weather Roundup
Issued by NWS

Home | Current Version | Previous Version | Graphics & Text | Print | Product List | Glossary On
Versions: 1 2 3 4 5 6 7 8 9 10 11 12 13 14 15 16 17 18 19 20 21 22 23 24 25 26 27 28 29 30 31 32 33 34 35 36 37 38 39 40 41 42 43 44 45 46 47 48 49 50
000
ASUS43 KFSD 270002
RWRSD

WEATHER ROUNDUP FOR SOUTH DAKOTA
NATIONAL WEATHER SERVICE SIOUX FALLS SD
700 PM CDT WED JUL 26 2017

NOTE: "FAIR" INDICATES FEW OR NO CLOUDS BELOW 12,000 FEET WITH NO
SIGNIFICANT WEATHER AND/OR OBSTRUCTIONS TO VISIBILITY.


SDZ001>005-009-010-012>017-270100-
NORTHWEST AND NORTH CENTRAL SOUTH DAKOTA

CITY           SKY/WX    TMP DP  RH WIND       PRES   REMARKS
BUFFALO          N/A     89  49  25 S12       30.04F
FAITH            N/A     86  49  27 S9        30.10F
MOBRIDGE       SUNNY     86  59  39 NE8       30.07S
$$

SDZ012>016-024>037-041>051-057-063-072>074-270100-
SOUTHWEST AND SOUTH CENTRAL SOUTH DAKOTA

CITY           SKY/WX    TMP DP  RH WIND       PRES   REMARKS
RAPID CTY ARPT CLOUDY    84  51  31 SE8       30.13F
PIERRE         MOSUNNY   87  52  29 VRB6      30.06F
CUSTER         CLOUDY    74  47  38 SE8G21    30.28F
PHILIP         MOSUNNY   88  52  29 E10       30.08F
PINE RIDGE     CLOUDY    82  56  40 E10       30.15S
SPEARFISH      LGT RAIN  82  50  32 SE9       30.16F
WINNER         FAIR      88  53  30 NE16      30.09R
$$

SDZ004>011-016>023-039-040-270100-
NORTHEAST SOUTH DAKOTA

CITY           SKY/WX    TMP DP  RH WIND       PRES   REMARKS
ABERDEEN       SUNNY     83  59  44 NE9       30.07S
WATERTOWN      MOSUNNY   79  60  52 N12       30.06S
BROOKINGS      SUNNY     79  60  52 N9        30.07S
SISSETON         N/A     79  63  57 N8        30.05R
$$

SDZ017-020-022-023-036>040-048>070-270100-
SOUTHEAST SOUTH DAKOTA

CITY           SKY/WX    TMP DP  RH WIND       PRES   REMARKS
SIOUX FALLS    MOSUNNY   80  61  52 NE10      30.05R
HURON          MOSUNNY   83  61  47 NE7       30.06S
CHAMBERLAIN    SUNNY     86  58  38 E7        30.08R
MITCHELL       SUNNY     82  61  48 NE9       30.06S
YANKTON        SUNNY     83  65  54 N13       30.03R
$$

ABBREVIATIONS USED IN REMARKS
   TC - TEMPERATURE IN CELSIUS
  WCI - WIND CHILL INDEX
   HX - HEAT INDEX
  VSB - VISIBILITY





USA.gov is the U.S. government's official web portal to all federal, state and local government web resources and services.